Weather History for Columbus, OH

Change the Weather History Date:

Saturday, June 7, 2014

  Actual Average Record
Temperature  
Mean Temperature 71 °F 69 °F  
Max Temperature 84 °F 79 °F 95 °F (1930)
Min Temperature 58 °F 59 °F 39 °F (1977)
Degree Days  
Heating Degree Days 0 1  
Month to date heating degree days 0 11  
Since 1 June heating degree days 0 11  
Since 1 July heating degree days 5633 5238  
Cooling Degree Days 6 5  
Month to date cooling degree days 48 34  
Year to date cooling degree days 203 116  
Since 1 June cooling degree days 48 34  
Growing Degree Days 20 (Base 50)    
Moisture  
Dew Point 50 °F    
Average Humidity 54    
Maximum Humidity 80    
Minimum Humidity 28    
Precipitation  
Precipitation 0.00 in 0.14 in 1.21 in (1940)
Month to date precipitation 1.37 1.00  
Year to date precipitation 18.22 16.57  
Snow  
Snow 0.00 in 0.00 in 0.00 in ()
Month to date snowfall 0.0 0.0  
Since 1 June snowfall 0.0 0.0  
Since 1 July snowfall 56.4 26.7  
Snow Depth 0.00 in    
Sea Level Pressure  
Sea Level Pressure 29.98 in    
Wind  
Wind Speed 3 mph (East)    
Max Wind Speed 10 mph    
Max Gust Speed 14 mph    
Visibility 10 miles    
Events      
T = Trace of Precipitation, MM = Missing Value Source: NWS Daily Summary

Daily Weather History Graph

Daily Weather History Graph

Search for Another Location

Airport:

Trip Planner

Search our weather history database for the weather conditions in past years. The results will help you decide how hot, cold, wet, or windy it might be!

Date:

Astronomy

Jun. 07, 2014 Rise Set
Actual Time 6:02 AM EDT 8:58 PM EDT
Civil Twilight 5:30 AM EDT 9:30 PM EDT
Nautical Twilight 4:49 AM EDT 10:11 PM EDT
Astronomical Twilight 4:01 AM EDT 10:59 PM EDT
Moon 3:14 PM EDT (6/7) 2:23 AM EDT (6/7)
Length of Visible Light 16h 00m
Length of Day
14h 55m
Waxing Gibbous, 67% of the Moon is Illuminated
Jun 7
Waxing Gibbous
Jun 13
Full
Jun 19
Last Quarter
Jun 27
New
Jul 5
First Quarter

Hourly Weather History & Observations

Time (EDT) Temp. Dew Point Humidity Pressure Visibility Wind Dir Wind Speed Gust Speed Precip Events Conditions
12:51 AM 64.9 °F 51.1 °F 61% 30.01 in 10.0 mi East 4.6 mph - N/A   Partly Cloudy
1:51 AM 64.0 °F 50.0 °F 60% 30.01 in 10.0 mi Calm Calm - N/A   Clear
2:51 AM 62.1 °F 51.1 °F 67% 30.01 in 10.0 mi Calm Calm - N/A   Clear
3:51 AM 57.9 °F 51.1 °F 78% 30.00 in 10.0 mi NE 3.5 mph - N/A   Clear
4:51 AM 57.9 °F 51.1 °F 78% 30.00 in 10.0 mi Calm Calm - N/A   Clear
5:51 AM 59.0 °F 50.0 °F 72% 30.01 in 10.0 mi Calm Calm - N/A   Clear
6:51 AM 60.1 °F 51.1 °F 72% 30.03 in 10.0 mi Calm Calm - N/A   Partly Cloudy
7:51 AM 66.2 °F 48.2 °F 52% 30.07 in 10.0 mi Calm Calm - N/A   Clear
8:51 AM 68.0 °F 51.8 °F 56% 30.07 in 10.0 mi Calm Calm - N/A   Clear
9:51 AM 75.2 °F 50.0 °F 41% 30.06 in 10.0 mi Variable 3.5 mph - N/A   Partly Cloudy
10:51 AM 78.1 °F 48.0 °F 35% 30.04 in 10.0 mi Calm Calm - N/A   Scattered Clouds
11:51 AM 78.1 °F 48.0 °F 35% 30.03 in 10.0 mi West 3.5 mph - N/A   Scattered Clouds
12:51 PM 79.0 °F 50.0 °F 36% 30.01 in 10.0 mi West 4.6 mph - N/A   Scattered Clouds
1:51 PM 81.0 °F 48.9 °F 33% 29.99 in 10.0 mi Variable 6.9 mph - N/A   Mostly Cloudy
2:51 PM 82.0 °F 48.0 °F 30% 29.98 in 10.0 mi NE 3.5 mph - N/A   Mostly Cloudy
3:51 PM 82.0 °F 48.9 °F 31% 29.94 in 10.0 mi East 4.6 mph - N/A   Mostly Cloudy
4:51 PM 82.0 °F 48.0 °F 30% 29.94 in 10.0 mi Variable 3.5 mph - N/A   Scattered Clouds
5:51 PM 82.4 °F 46.4 °F 28% 29.94 in 10.0 mi East 6.9 mph - N/A   Scattered Clouds
6:51 PM 81.0 °F 48.0 °F 31% 29.91 in 10.0 mi SE 8.1 mph - N/A   Mostly Cloudy
7:51 PM 80.1 °F 48.9 °F 34% 29.91 in 10.0 mi SSE 4.6 mph - N/A   Mostly Cloudy
8:51 PM 75.9 °F 50.0 °F 40% 29.89 in 10.0 mi East 6.9 mph - N/A   Mostly Cloudy
9:51 PM 73.0 °F 51.1 °F 46% 29.88 in 10.0 mi East 4.6 mph - N/A   Mostly Cloudy
10:51 PM 73.0 °F 50.0 °F 44% 29.89 in 10.0 mi ESE 3.5 mph - N/A   Mostly Cloudy
11:51 PM 70.0 °F 50.0 °F 49% 29.87 in 10.0 mi ESE 4.6 mph - N/A   Partly Cloudy